Back to catalog

OPS 4682 DEB

AlivePO
NORAD 1389·DEBRIS·🇺🇸 United States

Launched Apr 3, 1965 from Vandenberg Space Force Base

Loading…

Next Passes (next 24 hours)

TLE

FreshSource: Space-Track

Epoch: Sep 14, 2026, 09:24 UTC

1 01389U 65027D   26257.39193109  .00000629  00000-0  16621-2 0  9993
2 01389  89.8744 218.6211 0017892 270.2602 256.5699 13.14873633922408

Track OPS 4682 DEB in real time with AllMySat

Download on the App Store